Francistown, Botswana

12:48 PM CAT on May 28, 2017 (GMT +0200)
Francistown

Weather History for 68054 - May, 2013

Change the Weather History Date:

Wednesday, May 22, 2013

  Actual Average Record
Temperature  
Mean Temperature 60 °F -  
Max Temperature 79 °F 74 °F - ()
Min Temperature 41 °F 43 °F - ()
Degree Days  
Heating Degree Days 5    
Growing Degree Days 10 (Base 50)    
Moisture  
Dew Point 33 °F    
Average Humidity 40    
Maximum Humidity 66    
Minimum Humidity 9    
Precipitation  
Precipitation 0.00 in - - ()
Sea Level Pressure  
Sea Level Pressure 30.19 in    
Wind  
Wind Speed 4 mph ()    
Max Wind Speed 14 mph    
Max Gust Speed -    
Visibility 6.1 miles    
Events      
T = Trace of Precipitation, MM = Missing Value Source: Averaged Metar Reports

Daily Weather History Graph

Daily Weather History Graph

Search for Another Location

Airport or City:

Trip Planner

Search our weather history database for the weather conditions in past years. The results will help you decide how hot, cold, wet, or windy it might be!

Date:

Astronomy

May. 22, 2013 Rise Set
Actual Time 6:36 AM CAT 5:37 PM CAT
Civil Twilight 6:12 AM CAT 6:01 PM CAT
Nautical Twilight 5:45 AM CAT 6:28 PM CAT
Astronomical Twilight 5:18 AM CAT 6:55 PM CAT
Moon 3:23 PM CAT (5/22) 3:30 AM CAT (5/22)
Length of Visible Light 11h 48m
Length of Day
11h 01m
Waxing Gibbous, 89% of the Moon is Illuminated
May 22
Waxing Gibbous
May 25
Full
May 31
Last Quarter
Jun 8
New
Jun 16
First Quarter

Hourly Weather History & Observations

Time (CAT) Temp. Windchill Dew Point Humidity Pressure Visibility Wind Dir Wind Speed Gust Speed Precip Events Conditions
12:00 AM 50.0 °F - 33.8 °F 54% 30.21 in - SSE 3.5 mph - N/A   Clear
1:00 AM 48.2 °F - 33.8 °F 58% 30.21 in - SE 3.5 mph - N/A   Clear
2:00 AM 48 °F - 32 °F 42%  in 6 mi NW 1.2 mph - -  
2:00 AM 48.2 °F - 32.0 °F 54% 30.21 in - Variable 1.2 mph - N/A   Clear
3:00 AM 44.6 °F - 33.8 °F 66% 30.18 in - Variable 1.2 mph - N/A   Clear
4:00 AM 42.8 °F - 32.0 °F 66% 30.18 in - Calm Calm - N/A   Clear
5:00 AM 42.8 °F - 32.0 °F 66% 30.21 in - Calm Calm - N/A   Clear
6:00 AM 41.0 °F 39.0 °F 30.2 °F 65% 30.21 in - NW 3.5 mph - N/A   Clear
7:00 AM 46.4 °F 45.2 °F 33.8 °F 62% 30.21 in - NNW 3.5 mph - N/A   Clear
8:00 AM 51 °F - 36 °F 44%  in 6 mi Calm Calm - -   Partly Cloudy
8:00 AM 51.8 °F - 35.6 °F 54% 30.24 in - Calm Calm - N/A   Clear
9:00 AM 66.2 °F - 42.8 °F 43% 30.24 in - East 9.2 mph - N/A   Clear
10:00 AM 71.6 °F - 41.0 °F 33% 30.24 in - NE 11.5 mph - N/A   Clear
11:00 AM 75.2 °F - 33.8 °F 22% 30.24 in - East 13.8 mph - N/A   Clear
12:00 PM 75.2 °F - 30.2 °F 19% 30.21 in - East 12.7 mph - N/A   Clear
1:00 PM 78.8 °F - 30.2 °F 17% 30.18 in 6.2 mi East 4.6 mph - N/A   Partly Cloudy
2:00 PM 78 °F - 30 °F 9%  in 6 mi ESE 10.4 mph - -   Partly Cloudy
2:00 PM 78.8 °F - 30.2 °F 17% 30.15 in 6.2 mi ESE 10.4 mph - N/A   Partly Cloudy
3:00 PM 78.8 °F - 28.4 °F 16% 30.12 in 6.2 mi SE 10.4 mph - N/A   Partly Cloudy
4:00 PM 77.0 °F - 30.2 °F 18% 30.12 in 6.2 mi East 12.7 mph - N/A   Partly Cloudy
5:00 PM 75.2 °F - 28.4 °F 18% 30.15 in 6.2 mi ESE 8.1 mph - N/A   Partly Cloudy
6:00 PM 68.0 °F - 32.0 °F 26% 30.15 in 6.2 mi SE 8.1 mph - N/A   Partly Cloudy
7:00 PM 64.4 °F - 33.8 °F 32% 30.15 in - SE 4.6 mph - N/A   Clear
8:00 PM 60 °F - 33 °F 24%  in 6 mi SE 6.9 mph - -   Partly Cloudy
8:00 PM 59.0 °F - 33.8 °F 39% 30.18 in - SE 6.9 mph - N/A   Clear
9:00 PM 57.2 °F - 37.4 °F 48% 30.21 in - SE 6.9 mph - N/A   Clear
10:00 PM 55.4 °F - 33.8 °F 44% 30.21 in - SE 5.8 mph - N/A   Clear
11:00 PM 51.8 °F - 39.2 °F 62% 30.21 in - SSE 4.6 mph - N/A   Clear